If you wish to contribute or participate in the discussions about articles you are invited to join SKYbrary as a registered user

 Actions

Salamanca Airport

From SKYbrary Wiki

LESA
Airport
ICAO: LESA – IATA: SLM
Summary
Name Salamanca Airport
Region Europe
Territory Spain ES.gif
Location , Castilla y Leon
Serving Salamanca
Elevation 790.956 m
2,595 ft
2,595 ft790.956 m
Type medium airport
Coordinates 40° 57' 7.62" N, 5° 30' 7.15" W
Runways
Designator Length Width Surface ROPS
3/21 2500 m8,202.1 ft
60 m196.85 ft
ASP /
8/26 2010 m6,594.488 ft
122 m400.262 ft
GRE /


METAR
Observation LESA 220230Z AUTO 13004KT 0200 R21/0600N FG VV001 01/01 Q1017
Station Salamanca / Matacan
Date/Time 22 October 2019 02:30:00
Wind direction 130°
Wind speed 04 kts
Lowest cloud amount n/a
Temperature 21°C
Dew point 0°C
Humidity 24%
QNH 1017 hPa
Weather condition n/a